www.pogodaiklimat.ru

Погода и климат >> Архив погоды >> Чили >> Arica


ПОГОДА в Arica

  • Прогноз погоды в Arica
  • Монитор погоды в Arica
  • Климат города

АРХИВ ПОГОДЫ в Arica

Время (UTC), дата Ветер
(напр.,м/с)
 
Видим.   Явления Облачность Т
(С)
Тd
(С)
f
(%)
Тe
(С)
Тes
(С)
Комфортность P
(гПа)
Po
(гПа)
Тmin
(С)
Tmax
(С)
R
(мм)
R24
(мм)
S
(см)
06 16.01 СВ 2 40 км ясно +19.8 +12.4 62 +22 +22 комфорт 1015.4 1010.9
09 16.01 ЮЗ 1 10 км ясно +20.1 +12.4 61 +23 +23 комфорт 1014.0 1009.6
12 16.01 ЮВ 1 20 км 8/0
[Ac trans]
+21.1 +13.9 63 +24 +26 комфорт 1015.0 1010.6 +19.0
15 16.01 ЮЗ 4 30 км 4/0
[Ac trans]
+23.4 +13.7 54 +27 +37 душно 1015.3 1011.0
18 16.01 Ю 8 30 км ясно +23.5 +13.8 54 +26 +29 жарко 1014.4 1010.1
21 16.01 Ю 5 30 км 8/0
[As trans]
+21.5 +13.8 62 +24 +26 комфорт 1014.7 1010.3
00 17.01 Ю 2 20 км ясно +20.0 +13.8 67 +23 +23 комфорт 1015.7 1011.3 +24.2
03 17.01 СЗ 2 20 км ясно +20.1 +13.6 66 +23 +23 комфорт 1016.7 1012.3
06 17.01 С 3 40 км 6/0
[Ac trans]
+19.6 +13.4 67 +22 +22 комфорт 1014.6 1010.2
09 17.01 штиль 0 20 км ясно +18.8 +13.1 69 +20 +20 1013.6 1009.2
12 17.01 В 2 30 км 5/0
[Ac trans]
+20.8 +13.1 61 +24 +26 комфорт 1015.0 1010.6 +18.5
15 17.01 ЮЗ 5 20 км 5/0
[]
+22.3 +13.8 59 +25 +34 комфорт 1014.7 1010.4
18 17.01 Ю 8 40 км 5/0
[Ci fib]
+24.2 +13.3 51 +26 +29 жарко 1013.3 1009.0
21 17.01 Ю 5 20 км 8/0
[]
+20.3 +13.8 66 +23 +24 комфорт 1013.0 1008.6
00 18.01 З 1 30 км 4/0
[Ci fib]
+20.3 +13.6 65 +24 +24 комфорт 1014.6 1010.2 +25.0
03 18.01 СЗ 1 40 км 6/0
[]
+21.1 +13.1 60 +23 +23 комфорт 1016.7 1012.3
06 18.01 штиль 0 20 км 9/0
[As trans]
+20.0 +13.6 67 +22 +22 комфорт 1015.2 1010.8
09 18.01 З 2 10 км 10/0
[As trans]
+20.1 +14.1 68 +23 +23 комфорт 1014.4 1010.0
12 18.01 ЮЗ 2 20 км 10/10 750 м
[Sc]
+20.9 +13.5 63 +24 +24 комфорт 1015.2 1010.8 +19.6
15 18.01 Ю 3 30 км 10/10 750 м
[Sc]
+22.7 +13.6 56 +26 +26 жарко 1014.7 1010.4
18 18.01 Ю 8 30 км 4/0
[Ci fib]
+23.3 +13.0 52 +26 +30 жарко 1012.5 1008.2
21 18.01 Ю 6 30 км 8/0
[]
+21.2 +13.2 60 +24 +25 комфорт 1011.5 1007.2
00 19.01 СЗ 2 30 км 8/0 2000 м
[Ac trans Ci fib]
+21.1 +12.9 59 +23 +23 комфорт 1013.4 1009.1 +24.5
03 19.01 0 20 км 8/0
[Ac trans]
+20.4 +12.5 60 1015.7 1011.3
06 19.01 С 1 10 км 8/0
[Ac trans]
+19.0 +13.0 68 +21 +21 комфорт 1013.5 1009.1
09 19.01 штиль 0 10 км 8/0
[Ac trans]
+18.6 +12.7 69 +19 +19 1012.4 1008.0
12 19.01 С 2 40 км 3/0
[Ci fib]
+20.7 +12.0 57 +24 +27 комфорт 1014.1 1009.7 +18.3
15 19.01 З 5 40 км ясно +25.0 +13.1 48 +27 +38 жарко 1013.5 1009.2
18 19.01 ЮЗ 6 30 км 4/0
[Ci fib]
+23.3 +13.0 52 +26 +33 жарко 1012.5 1008.2
21 19.01 Ю 5 30 км 6/0
[]
+21.7 +13.7 60 +24 +27 комфорт 1011.8 1007.5
00 20.01 Ю 1 30 км 6/0
[Cs]
+20.0 +13.1 64 +23 +23 комфорт 1013.1 1008.7 +25.1
03 20.01 СЗ 1 20 км ясно +20.0 +12.8 63 +23 +23 комфорт 1013.8 1009.4
06 20.01 С 3 30 км ясно +19.6 +12.5 64 +21 +21 комфорт 1012.2 1007.8
09 20.01 С 3 30 км ясно +19.2 +12.6 66 +21 +21 комфорт 1011.5 1007.1
12 20.01 С 1 30 км 5/0
[Ci fib]
+20.8 +12.6 59 +24 +28 комфорт 1012.7 1008.3 +18.7
15 20.01 ЮЗ 5 20 км 4/0
[]
+22.9 +12.4 52 +26 +34 жарко 1012.6 1008.3
18 20.01 ЮЗ 5 30 км 6/0
[Ci fib]
+23.2 +12.7 52 +26 +35 жарко 1011.5 1007.2
21 20.01 Ю 4 30 км 3/0
[]
+22.6 +13.0 55 +26 +28 жарко 1010.7 1006.4
00 21.01 ЮЗ 3 20 км ясно +20.5 +13.3 63 +23 +23 комфорт 1012.1 1007.6 +24.4
03 21.01 Ю 1 20 км ясно +20.5 +13.1 62 +24 +24 комфорт 1013.3 1008.9
06 21.01 СЗ 2 20 км ясно +19.4 +13.0 66 +22 +22 комфорт 1011.5 1007.1
09 21.01 С 3 20 км ясно +19.2 +11.8 62 +20 +20 1010.4 1006.0
12 21.01 В 2 40 км 4/0
[Ci fib]
+21.5 +12.2 55 +24 +27 комфорт 1011.8 1007.5 +18.4
15 21.01 ЮЗ 5 20 км 4/0
[]
+23.8 +12.9 50 +26 +34 жарко 1011.6 1007.3
18 21.01 Ю 7 30 км 5/0
[Ci fib]
+23.7 +13.4 52 +26 +31 жарко 1009.6 1005.3
21 21.01 Ю 6 30 км 3/0
[]
+21.9 +13.9 60 +25 +27 комфорт 1008.9 1004.6
00 22.01 Ю 2 30 км 4/0
[Ci fib]
+19.7 +14.6 72 +22 +22 комфорт 1010.9 1006.5 +24.6
03 22.01 СВ 1 40 км ясно +20.5 +13.6 65 +24 +24 комфорт 1011.8 1007.4
06 22.01 СЗ 2 40 км ясно +19.6 +12.9 65 +22 +22 комфорт 1009.0 1005.5
09 22.01 СВ 1 40 км ясно +18.7 +11.8 64 +21 +21 комфорт 1009.1 1004.8
12 22.01 0 40 км 4/0
[Ci fib]
+20.9 +13.5 63 1010.6 1006.3 +18.3
15 22.01 ЮЗ 5 20 км 6/0
[]
+23.5 +14.6 57 +26 +34 жарко 1010.2 1005.9
18 22.01 ЮЗ 6 30 км 3/0
[Ci fib]
+23.8 +13.8 53 +26 +33 жарко 1008.6 1004.3
21 22.01 Ю 5 30 км 6/0
[]
+22.2 +13.9 59 +25 +27 комфорт 1009.0 1004.7
00 23.01 Ю 2 20 км ясно +19.9 +14.3 70 +23 +23 комфорт 1010.8 1006.4 +24.7

 

Местоположение метеостанции Arica (Чили): широта -18.46 долгота -70.16 высота над уровнем моря 58 м.

В архиве по умолчанию представлена погода в Arica за последнюю неделю. Архивные данные за месяц целиком и за предыдущие месяцы, начиная с января 2011 года, Вы можете получить, выбрав интересующий диапазон дат из раскрывающегося списка и нажав кнопку "Ввод!".

Внимание! Время в таблицах - всемирное. Для получения местного времени необходимо прибавить поправку, которая в Arica равна -4 ч.

Смотрите также архив погоды в соседних городах и на ближайших метеорологических станциях:

Погода в Tacna (Перу) (47 км)
Погода в Ilo (Перу) (151 км)
Погода в Iquique (Чили) (230 км)
Погода в Arequipa (Перу) (280 км)
Погода в La Paz (Боливия) (302 км)
Погода в Ovejuyo (Боливия) (311 км)
Погода в Juliaca (Перу) (331 км)
Погода в Oruro (Боливия) (332 км)
Погода в Cochabamba (Боливия) (437 км)
Погода в Calama (Чили) (464 км)

Пояснения к столбцам:

Ветер - указаны скорость ветра в м/с - средняя за 10 мин, порывы в срок и между сроками (в фигурных скобках) и направление, откуда дует ветер: С - северный, СВ - северо-восточный, В - восточный, ЮВ - юго-восточный, Ю - южный, ЮЗ - юго-западный, З - западный, СЗ - северо-западный.
Видимость - горизонтальная дальность видимости в метрах или километрах. При видимости от 1 до 10 км при отсутствии осадков обычно наблюдается дымка, при ухудшении видимости до 1 км и менее - туман. В сухую погоду видимость может ухудшаться дымом, пылью или мглою.
Явления - указаны атмосферные явления, наблюдавшиеся в срок или в последний час перед сроком; фигурными скобками обозначены явления, наблюдавшиеся между сроками (за 1-3 часа до срока); квадратными скобками обозначены град или гололедные отложения с указанием их диаметра в мм.
Облачность - указаны через наклонную черту общая и нижняя облачность в баллах и высота нижней границы облаков в метрах; квадратными скобками обозначены формы облаков: Ci - перистые, Cs - перисто-слоистые, Cc - перисто-кучевые, Ac - высококучевые, As - высокослоистые, Sc - слоисто-кучевые, Ns - слоисто-дождевые, Cu - кучевые, Cb - кучево-дождевые. Подробнее классификацию облаков см. в Атласе облаков (PDF).
T - Температура воздуха - температура, измеренная на высоте 2 м над землей.
Td - Температура точки росы - температура, при понижении до которой содержащийся в воздухе водяной пар достигнет насыщения.
f - Относительная влажность воздуха - влажноcть воздуха, измеренная на высоте 2 м над землей.
Te - Эффективная температура - температура, которую ощущает одетый по сезону человек в тени. Характеристика душности погоды. При расчете учитывается влияние влажности воздуха и скорости ветра на теплоощущения человека.
Tes - Эффективная температура на солнце - температура, которую ощущает человек, с поправкой на солнечный нагрев. Характеристика знойности погоды. Зависит от высоты солнца над горизонтом, облачности и скорости ветра. Ночью, в пасмурную погоду, а также при ветре 12 м/с и более поправка равна нулю.
P - Атмосферное давление - приведенное к уровню моря атмосферное давление.
Po - Атмосферное давление - измеренное на уровне метеостанции атмосферное давление.
Tmin - Минимальная температура - минимум температуры воздуха на высоте 2 м над землей.
Tmax - Максимальная температура - максимум температуры воздуха на высоте 2 м над землей.
R - Количество осадков - Количество выпавших осадков за период времени, мм. При наведении курсора мыши на число - период времени, за который выпало указанное количество осадков.
R24 - Количество осадков - Количество выпавших осадков за 24 часа, мм.
S - Снежный покров - Высота снежного покрова, см. При наведении курсора мыши на число - состояние снежного покрова и степень покрытия местности в баллах.